sat.trackr.live / text

‹ back to catalog

STARLINK-34961

NORAD 65252 · 2025-179T

PAYLOAD ACTIVE UNKNOWN

§ Identity

Operator
Country
US
Launch date
2025-08-18
Launch site
AFWTR
Launch vehicle
Mass (kg)
RCS (m²)

Purposes: comms

External: N2YO · Heavens-Above · Gunter

§ Orbital elements

Epoch: 2026-09-20T14:06:13.229568Z

Period
93.90 min
Inclination
97.2861°
Eccentricity
0.0000922
Mean motion
15.33468563 rev/d
Perigee alt
464.8 km
Apogee alt
466.1 km
Semi-major
6,843.6 km
B*
4.5384e-4
RAAN
302.8724°
Arg perigee
84.3546°
Mean anomaly
275.7802°
Rev number
6,133

§ Raw data

STARLINK-349611 65252U 25179T   26263.58765312  .00014616  00000+0  45384-3 0  99942 65252  97.2861 302.8724 0000922  84.3546 275.7802 15.33468563 61332

JSON: /api/v1/satellites/65252 · /tle

For live sub-satellite position, see the globe view (requires WebGL).

§ Visibility from observer

Set your observer location to see the next 7 days of passes ≥ 10°. The values pass through the URL so the page stays shareable.

No JS? Fill the form by hand. The geolocation button needs JavaScript.